Regional Weather Roundup
Issued by NWS

Home | Current Version | Previous Version | Graphics & Text | Print | Product List | Glossary On
Versions: 1 2 3 4 5 6 7 8 9 10 11 12 13 14 15 16 17 18 19 20 21 22 23 24 25 26 27 28 29 30 31 32 33 34 35 36 37 38 39 40 41 42 43 44 45 46 47 48 49 50
000
ASUS43 KBIS 241102
RWRND

NORTH DAKOTA REGIONAL WEATHER ROUNDUP
NATIONAL WEATHER SERVICE BISMARCK ND
600 AM CDT SAT JUN 24 2017

NOTE: "FAIR" INDICATES FEW OR NO CLOUDS BELOW 12,000 FEET WITH NO
SIGNIFICANT WEATHER AND/OR OBSTRUCTIONS TO VISIBILITY.


NDZ001>003-009>011-017-241200-
NORTHWEST NORTH DAKOTA

CITY           SKY/WX    TMP DP  RH WIND       PRES   REMARKS
WILLISTON      PTCLDY    45  35  68 NW12      30.21R
MINOT          MOCLDY    45  40  82 NW17      30.11R
MINOT AFB      MOCLDY    44  40  85 NW15      30.11R
$$

NDZ018>021-031>035-040>046-241200-
SOUTHWEST NORTH DAKOTA

CITY           SKY/WX    TMP DP  RH WIND       PRES   REMARKS
BISMARCK       CLOUDY    50  41  71 NW10      30.13R
DICKINSON      PTCLDY    41  35  79 W8        30.17R
GARRISON         N/A     42  39  89 NW9       30.13R
HETTINGER ARPT PTCLDY    42  31  64 NW9       30.20R
$$

NDZ004>008-012>016-024-026-027-054-241200-
NORTHEAST NORTH DAKOTA

CITY           SKY/WX    TMP DP  RH WIND       PRES   REMARKS
GRAND FORKS    CLOUDY    51  45  79 NW12      29.97R
GRND FRKS AFB  CLOUDY    48  46  93 NW8       29.98R
DEVILS LAKE    MOCLDY    47  42  83 NW13      30.03R
$$

NDZ022-023-025-028>030-036>039-047>053-241200-
SOUTHEAST NORTH DAKOTA

CITY           SKY/WX    TMP DP  RH WIND       PRES   REMARKS
FARGO          CLOUDY    52  41  66 W12       29.99S
JAMESTOWN      CLEAR     48  42  80 NW15      30.05R
$$




USA.gov is the U.S. government's official web portal to all federal, state and local government web resources and services.